Location: Newark
(52.4787°S, 179.0532°W)
Time: 23:57:26
(UTC+00:00)

N. Korean satellite - Visible Passes

Search period start: 23 September 2020 00:00
Search period end: 03 October 2020 00:00
Orbit: 455 x 503 km, 97.2° (Epoch: 23 September)

Date Brightness Start Highest point End Pass type
(mag) Time Alt. Az. Time Alt. Az. Time Alt. Az.
23 Sep 9.8 06:58:26 10° SSW 07:00:45 17° WSW 07:03:04 10° WNW visible
23 Sep 7.6 16:04:52 10° NE 16:08:13 47° ESE 16:11:37 10° S visible
24 Sep 9.0 06:31:50 10° S 06:34:55 28° WSW 06:38:01 10° NW visible
24 Sep 8.9 15:39:24 10° ENE 15:42:20 25° ESE 15:45:17 10° S visible
25 Sep 9.8 15:14:27 10° E 15:16:31 15° ESE 15:18:37 10° SSE visible
25 Sep 6.5 16:46:04 10° N 16:49:30 57° W 16:52:58 10° SSW visible
26 Sep 10.1 07:14:19 10° SSW 07:15:52 12° WSW 07:17:25 10° W visible
26 Sep 6.8 16:19:59 10° NNE 16:23:27 71° ESE 16:26:58 10° S visible
27 Sep 9.6 06:47:22 10° SSW 06:50:05 21° WSW 06:52:49 10° WNW visible
27 Sep 8.2 15:54:17 10° NE 15:57:30 36° ESE 16:00:45 10° S visible
28 Sep 9.4 15:28:59 10° ENE 15:31:38 20° ESE 15:34:18 10° SSE visible
29 Sep 10.1 15:04:24 10° E 15:05:51 12° ESE 15:07:20 10° SSE visible
29 Sep 6.4 16:35:13 10° N 16:38:42 77° WNW 16:42:13 10° SSW visible
30 Sep 9.9 07:03:01 10° SSW 07:05:13 16° WSW 07:07:24 10° W visible
30 Sep 7.4 16:09:17 10° NNE 16:12:40 53° ESE 16:16:08 10° S visible
01 Oct 8.8 15:43:44 10° NE 15:46:45 28° ESE 15:49:49 10° S visible
02 Oct 9.8 15:18:38 10° ENE 15:20:55 17° ESE 15:23:13 10° SSE visible
